Rolla, MO

8:35 AM CDT on August 16, 2017 (GMT -0500)
Rolla National

Weather History for KVIH - October, 2012

Change the Weather History Date:

Saturday, October 13, 2012

  Actual Average Record
Temperature  
Mean Temperature 66 °F 58 °F  
Max Temperature 76 °F 68 °F 88 °F (1952)
Min Temperature 56 °F 47 °F 26 °F (2006)
Degree Days  
Heating Degree Days 0 8  
Month to date heating degree days 166 89  
Since 1 July heating degree days 248 153  
Cooling Degree Days 1 1  
Month to date cooling degree days 1 16  
Year to date cooling degree days 1667 1234  
Growing Degree Days 15 (Base 50)    
Moisture  
Dew Point 61 °F    
Average Humidity 79    
Maximum Humidity 93    
Minimum Humidity 64    
Precipitation  
Precipitation 1.13 in 0.10 in 3.56 in (1968)
Month to date precipitation 1.94 1.41  
Year to date precipitation 28.50 35.00  
Sea Level Pressure  
Sea Level Pressure 29.94 in    
Wind  
Wind Speed 14 mph (South)    
Max Wind Speed 26 mph    
Max Gust Speed 33 mph    
Visibility 7 miles    
Events Rain , Thunderstorm    
T = Trace of Precipitation, MM = Missing Value Source: NWS Daily Summary

Daily Weather History Graph

Daily Weather History Graph

Search for Another Location

Airport or City:

Trip Planner

Search our weather history database for the weather conditions in past years. The results will help you decide how hot, cold, wet, or windy it might be!

Date:

Astronomy

Oct. 13, 2012 Rise Set
Actual Time 7:14 AM CDT 6:31 PM CDT
Civil Twilight 6:47 AM CDT 6:57 PM CDT
Nautical Twilight 6:17 AM CDT 7:28 PM CDT
Astronomical Twilight 5:46 AM CDT 7:58 PM CDT
Moon 5:06 AM CDT (10/13) 5:14 PM CDT (10/13)
Length of Visible Light 12h 10m
Length of Day
11h 17m
Waning Crescent, 5% of the Moon is Illuminated
Oct 13
Waning Crescent
Oct 15
New
Oct 21
First Quarter
Oct 29
Full
Nov 6
Last Quarter

Hourly Weather History & Observations

Time (CDT) Temp. Dew Point Humidity Pressure Visibility Wind Dir Wind Speed Gust Speed Precip Events Conditions
12:53 AM 55.9 °F 54.0 °F 93% 30.14 in 8.0 mi SSE 13.8 mph - N/A   Overcast
1:53 AM 55.9 °F 54.0 °F 93% 30.10 in 7.0 mi SSE 15.0 mph - N/A   Overcast
2:53 AM 55.9 °F 54.0 °F 93% 30.08 in 8.0 mi South 11.5 mph - N/A   Overcast
3:53 AM 57.0 °F 55.0 °F 93% 30.07 in 9.0 mi South 13.8 mph - N/A   Overcast
4:53 AM 57.0 °F 55.9 °F 96% 30.08 in 8.0 mi South 11.5 mph - N/A   Overcast
5:53 AM 59.0 °F 57.0 °F 93% 30.08 in 8.0 mi South 13.8 mph - N/A   Overcast
6:53 AM 60.1 °F 57.9 °F 93% 30.07 in 7.0 mi SSE 12.7 mph - N/A   Overcast
7:53 AM 62.1 °F 60.1 °F 93% 30.05 in 5.0 mi South 18.4 mph 23.0 mph N/A   Overcast
8:53 AM 63.0 °F 60.1 °F 90% 30.06 in 6.0 mi SSW 13.8 mph 21.9 mph N/A   Overcast
9:53 AM 64.9 °F 61.0 °F 87% 30.05 in 6.0 mi South 13.8 mph - N/A   Overcast
10:32 AM 68.0 °F 62.6 °F 83% 30.05 in 8.0 mi South 19.6 mph 24.2 mph N/A   Mostly Cloudy
10:53 AM 69.1 °F 62.1 °F 78% 30.03 in 9.0 mi SSW 16.1 mph 21.9 mph N/A   Partly Cloudy
11:53 AM 71.1 °F 62.1 °F 73% 29.99 in 10.0 mi South 16.1 mph 23.0 mph N/A   Mostly Cloudy
12:53 PM 75.0 °F 62.1 °F 64% 29.97 in 10.0 mi SSW 20.7 mph 29.9 mph N/A   Clear
1:53 PM 73.9 °F 62.1 °F 66% 29.94 in 10.0 mi SSW 23.0 mph 32.2 mph N/A   Mostly Cloudy
2:03 PM 73.4 °F 62.6 °F 69% 29.95 in 10.0 mi SSW 18.4 mph 29.9 mph N/A   Partly Cloudy
2:53 PM 73.4 °F 62.6 °F 69% 29.93 in 10.0 mi South 20.7 mph 28.8 mph N/A   Mostly Cloudy
3:17 PM 73.4 °F 62.6 °F 69% 29.92 in 10.0 mi South 16.1 mph 24.2 mph N/A   Scattered Clouds
3:53 PM 73.0 °F 62.1 °F 68% 29.89 in 10.0 mi South 12.7 mph 21.9 mph N/A   Mostly Cloudy
4:53 PM 73.0 °F 62.1 °F 68% 29.87 in 10.0 mi South 18.4 mph - N/A   Overcast
5:21 PM 71.6 °F 62.6 °F 73% 29.88 in 10.0 mi South 11.5 mph 23.0 mph N/A   Overcast
5:53 PM 72.0 °F 62.1 °F 71% 29.86 in 10.0 mi South 11.5 mph - N/A   Overcast
6:27 PM 71.6 °F 60.8 °F 69% 29.88 in 6.0 mi South 17.3 mph 25.3 mph 0.03 in Rain Light Rain
6:53 PM 69.8 °F 62.6 °F 78% 29.87 in 10.0 mi South 15.0 mph 21.9 mph N/A   Overcast
7:53 PM 70.0 °F 62.1 °F 76% 29.84 in 10.0 mi South 13.8 mph 25.3 mph 0.00 in   Overcast
8:53 PM 70.0 °F 62.1 °F 76% 29.81 in 10.0 mi South 16.1 mph 23.0 mph N/A   Scattered Clouds
9:53 PM 69.1 °F 64.0 °F 84% 29.78 in 5.0 mi South 13.8 mph 23.0 mph 0.04 in Rain Heavy Rain
10:40 PM 66.2 °F 64.4 °F 94% 29.81 in 5.0 mi SW 11.5 mph 24.2 mph N/A Rain , Thunderstorm Light Rain
10:51 PM 66.2 °F 64.4 °F 94% 29.80 in 1.8 mi SSW 8.1 mph - N/A Rain , Thunderstorm Heavy Thunderstorms and Rain
10:53 PM 66.2 °F 64.4 °F 94% 29.80 in 1.5 mi SSW 8.1 mph - N/A Rain , Thunderstorm Heavy Thunderstorms and Rain
11:06 PM 66.2 °F 64.4 °F 94% 29.79 in 3.0 mi South 15.0 mph 21.9 mph 0.06 in Rain , Thunderstorm Heavy Thunderstorms and Rain
11:14 PM 66.2 °F 64.4 °F 94% 29.84 in 4.0 mi WSW 21.9 mph 28.8 mph 0.07 in Rain Rain
11:19 PM 64.4 °F 62.6 °F 94% 29.84 in 1.8 mi West 17.3 mph 29.9 mph 0.23 in Rain Heavy Rain
11:34 PM 62.6 °F 60.8 °F 94% 29.82 in 3.0 mi SSW 8.1 mph - 0.37 in Rain Rain
11:53 PM 62.6 °F 60.8 °F 94% 29.80 in 4.0 mi SSW 8.1 mph - N/A Rain Rain